Meteo18 Weather Cam more information Meteo18 Weather Cam


Thunder radar more information blitzortung!


Rain radar more information rain snow radar



Select another period ( hide this area )

Units Period Custom range Directly to
Metric English Both
Daily Weekly Monthly Yearly
use both date-selectors for a custom range
previous Day
With this date

WeatherUnderground graphs for this period ( click here )


Daily Summary for Tuesday 20 November 2018
Time Temp. ( °C ) Dew pt. ( °C ) Wind ( km/h ) from Gust ( km/h ) Pressure ( hPa ) Humid.( % ) Rainrate ( cm )
High3,5 0,7 14,3 NE ( 211/383 ) 17,7 1003,6 91 -
Average2,1 0,1 2,9 Calm #77/211 5,8 1002,3 87 -
Low0,8 -0,7 -   0,0 1000,9 79 -
Daily Tabular details for Tuesday 20 November 2018
Time Temp. ( °C ) Dew pt. ( °C ) Wind ( km/h ) from Gust ( km/h ) Pressure ( hPa ) Humid.( % ) Rainrate ( cm )
00:04 2,7 0,3 13,0 NNE 12,9 1003,6 84 -
00:08 2,7 0,3 11,1 NE 17,7 1003,6 84 -
00:14 2,6 0,2 9,7 NNE 12,9 1003,6 84 -
00:18 2,6 0,2 9,7 NE 16,1 1003,6 84 -
00:24 2,6 0,2 9,7 NE 16,1 1003,6 84 -
00:28 2,6 0,3 7,9 NE 11,3 1003,6 85 -
00:34 2,5 0,2 7,9 NE 17,7 1003,6 85 -
00:38 2,4 0,1 7,9 NE 14,5 1003,3 85 -
00:44 2,4 0,3 7,9 NE 14,5 1003,3 86 -
00:48 2,4 0,3 9,7 NE 12,9 1003,3 86 -
00:54 2,3 0,2 7,9 NE 11,3 1003,3 86 -
00:58 2,3 0,2 7,9 NE 14,5 1003,3 86 -
01:04 2,2 0,3 4,7 NE 16,1 1002,9 87 -
01:08 2,2 0,3 7,9 NNE 11,3 1002,9 87 -
01:14 2,2 0,3 4,7 NNE 11,3 1002,9 87 -
01:18 2,1 0,3 6,4 NE 14,5 1002,9 88 -
01:24 2,1 0,3 6,4 NE 8,0 1002,9 88 -
01:28 2,1 0,3 4,7 ENE 11,3 1002,9 88 -
01:34 2,0 0,2 6,4 NE 12,9 1002,9 88 -
01:38 2,0 0,2 4,7 NNW 12,9 1002,9 88 -
01:44 2,0 0,2 3,2 NE 9,7 1002,9 88 -
01:48 2,0 0,2 7,9 NNE 8,0 1002,9 88 -
01:54 1,9 0,1 7,9 NE 11,3 1002,9 88 -
01:58 1,9 0,1 13,0 NE 12,9 1002,9 88 -
02:04 1,9 0,1 7,9 NE 11,3 1002,6 88 -
02:08 1,9 0,1 14,3 NE 14,5 1002,6 88 -
02:14 1,9 0,1 6,4 NE 12,9 1002,6 88 -
02:18 1,9 0,1 9,7 NNE 16,1 1002,6 88 -
02:24 1,9 0,1 11,1 NE 12,9 1002,6 88 -
02:28 1,9 0,1 3,2 NE 12,9 1002,6 88 -
02:34 1,9 0,1 3,2 NE 12,9 1002,6 88 -
02:38 1,9 0,3 9,7 NE 11,3 1002,6 89 -
02:44 1,8 0,2 13,0 NE 12,9 1002,6 89 -
02:48 1,8 0,2 6,4 NNE 11,3 1002,6 89 -
02:54 1,8 0,2 6,4 NNE 12,9 1002,3 89 -
02:58 1,8 0,2 11,1 NE 11,3 1002,3 89 -
03:04 1,7 0,1 4,7 NNE 11,3 1002,3 89 -
03:08 1,7 0,1 7,9 NNE 9,7 1002,3 89 -
03:14 1,7 0,1 6,4 NNE 14,5 1002,3 89 -
03:18 1,7 0,1 4,7 NE 14,5 1002,3 89 -
03:22 1,7 0,1 6,4 NE 16,1 1002,3 89 -
03:28 1,6 0,0 13,0 NNE 16,1 1001,9 89 -
03:32 1,6 0,0 7,9 NNE 9,7 1001,9 89 -
03:38 1,6 0,1 4,7 North 14,5 1001,9 90 -
03:42 1,5 0,0 7,9 NE 14,5 1001,9 90 -
03:49 1,5 0,0 4,7 NE 11,3 1001,9 90 -
03:53 1,4 -0,1 6,4 NE 11,3 1001,9 90 -
03:59 1,4 -0,1 6,4 NNE 9,7 1001,9 90 -
04:03 1,4 -0,1 9,7 NE 12,9 1001,9 90 -
04:09 1,4 -0,1 4,7 NNE 9,7 1001,9 90 -
04:13 1,3 -0,2 4,7 NNE 8,0 1001,9 90 -
04:19 1,3 -0,2 3,2 NE 6,4 1001,9 90 -
04:23 1,3 0,0 3,2 NE 8,0 1001,9 91 -
04:29 1,3 0,0 6,4 NE 6,4 1001,9 91 -
04:33 1,3 0,0 4,7 NE 6,4 1001,9 91 -
04:39 1,3 -0,2 1,4 NE 8,0 1001,6 90 -
04:43 1,3 -0,2 3,2 NNE 4,8 1001,6 90 -
04:49 1,3 -0,2 3,2 North 8,0 1001,6 90 -
04:53 1,3 -0,2 3,2 NE 9,7 1001,6 90 -
04:59 1,3 -0,2 4,7 NNE 11,3 1001,6 90 -
05:03 1,3 -0,2 4,7 NNE 11,3 1001,6 90 -
05:09 1,3 -0,2 7,9 NE 11,3 1001,6 90 -
05:13 1,3 -0,2 11,1 NNE 11,3 1001,6 90 -
05:19 1,2 -0,3 4,7 NNE 9,7 1001,6 90 -
05:23 1,2 -0,3 4,7 ENE 8,0 1001,6 90 -
05:29 1,2 -0,3 1,4 NNE 4,8 1001,6 90 -
05:33 1,2 -0,3 3,2 NE 6,4 1001,6 90 -
05:39 1,2 -0,3 3,2 NE 4,8 1001,6 90 -
05:43 1,1 -0,4 4,7 NE 6,4 1001,6 90 -
05:49 1,1 -0,4 1,4 NE 3,2 1001,2 90 -
05:53 1,1 -0,4 3,2 NNE 8,0 1001,2 90 -
05:59 1,1 -0,2 3,2 NE 6,4 1001,2 91 -
06:03 1,1 -0,4 1,4 NE 8,0 1001,2 90 -
06:09 1,1 -0,4 4,7 NE 8,0 1001,2 90 -
06:13 1,1 -0,4 4,7 NNE 9,7 1001,2 90 -
06:19 1,1 -0,4   Calm 9,7 1001,2 90 -
06:23 1,1 -0,4 1,4 North 4,8 1001,2 90 -
06:29 1,0 -0,5 1,4 NE 8,0 1001,2 90 -
06:33 0,9 -0,6 9,7 NE 11,3 1000,9 90 -
06:39 0,9 -0,6 3,2 NNE 8,0 1000,9 90 -
06:43 0,9 -0,6 1,4 NNE 6,4 1001,2 90 -
06:49 0,9 -0,6 3,2 NE 6,4 1000,9 90 -
06:53 0,9 -0,6   Calm 8,0 1000,9 90 -
06:59 0,9 -0,6 1,4 North 3,2 1000,9 90 -
07:03 0,9 -0,6 4,7 NNE 4,8 1001,2 90 -
07:07 0,9 -0,6   Calm 1,6 1001,2 90 -
07:13 0,8 -0,7 1,4 NNW 3,2 1000,9 90 -
07:19 0,8 -0,5   Calm 1,6 1000,9 91 -
07:23 0,8 -0,5   Calm 6,4 1000,9 91 -
07:29 0,8 -0,5 3,2 NE 3,2 1000,9 91 -
07:33 0,8 -0,5   Calm 1,6 1001,2 91 -
07:39 0,8 -0,5 1,4 NNE 1,6 1001,2 91 -
07:43 0,8 -0,5   Calm 1,6 1001,2 91 -
07:49 0,8 -0,5   Calm 3,2 1001,2 91 -
07:53 0,8 -0,5   Calm   1001,2 91 -
07:59 0,8 -0,5 6,4 North 6,4 1001,2 91 -
08:03 0,8 -0,5 3,2 North 4,8 1001,2 91 -
08:09 0,8 -0,5   Calm 3,2 1001,2 91 -
08:13 0,8 -0,5   Calm 3,2 1001,2 91 -
08:19 0,8 -0,5   Calm 3,2 1001,2 91 -
08:23 0,8 -0,5 1,4 North 3,2 1001,2 91 -
08:29 0,8 -0,5   Calm 4,8 1001,2 91 -
08:33 0,9 -0,4 1,4 NNE 3,2 1001,2 91 -
08:39 0,9 -0,4 1,4 ENE 3,2 1001,2 91 -
08:43 0,9 -0,4   Calm 3,2 1001,2 91 -
08:49 0,9 -0,4 1,4 NE 4,8 1001,2 91 -
08:53 0,9 -0,4 1,4 NE 3,2 1001,2 91 -
08:59 0,9 -0,4   Calm 3,2 1001,2 91 -
09:01 1,0 -0,3   Calm 3,2 1001,2 91 -
09:09 1,0 -0,3 3,2 NE 4,8 1001,2 91 -
09:13 1,1 -0,2 3,2 NE 3,2 1001,2 91 -
09:19 1,1 -0,2   Calm 3,2 1001,2 91 -
09:23 1,1 -0,2   Calm 3,2 1001,2 91 -
09:29 1,2 -0,1 1,4 North 4,8 1001,2 91 -
09:33 1,2 -0,1   Calm 1,6 1001,2 91 -
09:39 1,3 -0,2   Calm 3,2 1001,2 90 -
09:44 1,3 -0,2   Calm 3,2 1001,2 90 -
09:48 1,3 -0,2 3,2 NE 4,8 1001,2 90 -
09:54 1,4 -0,1 1,4 NNE 3,2 1001,2 90 -
09:58 1,4 -0,1 1,4 NE 4,8 1001,2 90 -
10:04 1,5 0,0   Calm 1,6 1001,2 90 -
10:08 1,6 0,1   Calm 3,2 1001,2 90 -
10:14 1,7 0,1   Calm 1,6 1001,2 89 -
10:18 1,7 0,1 1,4 ENE 4,8 1001,2 89 -
10:24 1,7 -0,1   Calm 3,2 1001,2 88 -
10:28 1,8 0,2 1,4 East 1,6 1001,2 89 -
10:34 1,9 0,1   Calm 1,6 1001,2 88 -
10:38 1,9 0,1   Calm 3,2 1001,2 88 -
10:44 2,1 0,3   Calm 3,2 1001,2 88 -
10:48 2,1 0,2   Calm 3,2 1001,6 87 -
10:54 2,3 0,4   Calm 1,6 1001,6 87 -
10:58 2,4 0,5   Calm 1,6 1001,2 87 -
11:04 2,6 0,5   Calm 1,6 1001,6 86 -
11:08 2,7 0,6   Calm   1001,2 86 -
11:14 2,8 0,4   Calm   1001,6 84 -
11:18 2,7 0,3   Calm 1,6 1001,6 84 -
11:24 2,8 0,4   Calm   1001,2 84 -
11:28 2,8 0,2 1,4 SSE 1,6 1001,2 83 -
11:34 2,9 0,3   Calm 3,2 1001,2 83 -
11:38 2,9 0,5   Calm 3,2 1001,2 84 -
11:44 3,1 0,7 1,4 SE 3,2 1001,2 84 -
11:48 3,0 0,4 1,4 ESE 3,2 1001,2 83 -
11:54 2,9 0,3 1,4 SW 3,2 1001,2 83 -
11:58 3,0 0,4   Calm   1001,2 83 -
12:04 3,0 0,4   Calm 1,6 1001,2 83 -
12:08 3,0 0,4   Calm 1,6 1001,2 83 -
12:14 2,9 0,3   Calm 3,2 1001,2 83 -
12:18 2,9 0,3   Calm 3,2 1001,2 83 -
12:24 2,9 0,3   Calm 1,6 1001,2 83 -
12:28 3,0 0,4 3,2 SE 3,2 1001,2 83 -
12:34 3,1 0,3   Calm 1,6 1001,2 82 -
12:38 3,1 0,2   Calm 1,6 1001,2 81 -
12:44 3,1 0,2 1,4 SW 3,2 1001,2 81 -
12:48 3,1 0,0 1,4 SW 3,2 1001,2 80 -
12:54 3,2 0,3 1,4 South 3,2 1001,2 81 -
12:58 3,2 0,1   Calm   1001,2 80 -
13:04 3,3 0,2 1,4 SE 1,6 1001,2 80 -
13:08 3,3 0,4 3,2 South 4,8 1001,2 81 -
13:14 3,2 0,3   Calm 1,6 1001,2 81 -
13:18 3,3 0,4 1,4 WSW 3,2 1001,2 81 -
13:24 3,3 0,4   Calm 1,6 1001,2 81 -
13:28 3,3 0,5 1,4 SW 1,6 1001,2 82 -
13:34 3,3 0,4 3,2 SSW 3,2 1001,2 81 -
13:38 3,3 0,4   Calm 1,6 1001,2 81 -
13:44 3,3 0,5   Calm 3,2 1001,2 82 -
13:48 3,2 0,4 1,4 South 3,2 1001,2 82 -
13:54 3,2 0,3 3,2 South 3,2 1001,2 81 -
13:58 3,2 0,3 1,4 SSW 3,2 1001,2 81 -
14:04 3,1 0,2   Calm   1001,2 81 -
14:08 3,1 0,3   Calm   1001,2 82 -
14:14 3,2 0,1   Calm 1,6 1001,2 80 -
14:18 3,1 -0,2   Calm 1,6 1001,6 79 -
14:22 3,2 0,1   Calm 1,6 1001,2 80 -
14:29 3,3 0,4   Calm   1001,6 81 -
14:33 3,3 0,2   Calm 3,2 1001,6 80 -
14:39 3,3 0,4 1,4 South 3,2 1001,6 81 -
14:43 3,3 0,4 1,4 SE 1,6 1001,6 81 -
14:49 3,4 0,6   Calm 1,6 1001,6 82 -
14:53 3,5 0,7 1,4 South 3,2 1001,6 82 -
14:59 3,4 0,6 3,2 SSW 3,2 1001,6 82 -
15:03 3,4 0,6   Calm 3,2 1001,6 82 -
15:09 3,3 0,4 1,4 East 1,6 1001,6 81 -
15:13 3,3 0,4 3,2 South 3,2 1001,6 81 -
15:19 3,4 0,6   Calm 1,6 1001,6 82 -
15:23 3,4 0,6   Calm 1,6 1001,6 82 -
15:29 3,4 0,4 3,2 South 3,2 1001,6 81 -
15:33 3,4 0,4 1,4 SW 4,8 1001,9 81 -
15:39 3,4 0,6   Calm 1,6 1001,9 82 -
15:43 3,4 0,6 1,4 SSE 4,8 1001,9 82 -
15:49 3,4 0,4 1,4 SSW 4,8 1001,9 81 -
15:53 3,3 0,4 1,4 SE 3,2 1001,9 81 -
15:59 3,3 0,4   Calm 3,2 1001,9 81 -
16:03 3,3 0,2 1,4 SW 3,2 1001,9 80 -
16:09 3,3 0,5 3,2 SSW 3,2 1001,9 82 -
16:13 3,3 0,4 1,4 South 3,2 1001,9 81 -
16:19 3,2 0,3 1,4 SW 4,8 1001,9 81 -
16:23 3,2 0,3 1,4 SW 3,2 1001,9 81 -
16:29 3,2 0,6 1,4 SSW 1,6 1001,9 83 -
16:33 3,2 0,6   Calm 1,6 1001,9 83 -
16:39 3,2 0,6   Calm 3,2 1002,3 83 -
16:43 3,1 0,5   Calm 3,2 1002,3 83 -
16:49 3,1 0,5   Calm 3,2 1002,3 83 -
16:53 2,9 0,3   Calm   1002,3 83 -
16:59 2,9 0,5   Calm   1002,6 84 -
17:03 2,8 0,5   Calm   1002,6 85 -
17:09 2,7 0,4   Calm 1,6 1002,6 85 -
17:13 2,6 0,3   Calm 3,2 1002,6 85 -
17:19 2,4 0,1   Calm 1,6 1002,6 85 -
17:23 2,4 0,1   Calm   1002,9 85 -
17:29 2,2 0,1   Calm   1002,9 86 -
17:33 2,1 0,2   Calm   1002,9 87 -
Daily Summary for Tuesday 20 November 2018
Time Temp. ( °C ) Dew pt. ( °C ) Wind ( km/h ) from Gust ( km/h ) Pressure ( hPa ) Humid.( % ) Rainrate ( cm )
High3,5 0,7 14,3 NE ( 211/383 ) 17,7 1003,6 91 -
Average2,1 0,1 2,9 Calm #77/211 5,8 1002,3 87 -
Low0,8 -0,7 -   0,0 1000,9 79 -
Daily Tabular details for Tuesday 20 November 2018
Time Temp. ( °C ) Dew pt. ( °C ) Wind ( km/h ) from Gust ( km/h ) Pressure ( hPa ) Humid.( % ) Rainrate ( cm )
00:04 2,7 0,3 13,0 NNE 12,9 1003,6 84 -
00:08 2,7 0,3 11,1 NE 17,7 1003,6 84 -
00:14 2,6 0,2 9,7 NNE 12,9 1003,6 84 -
00:18 2,6 0,2 9,7 NE 16,1 1003,6 84 -
00:24 2,6 0,2 9,7 NE 16,1 1003,6 84 -
00:28 2,6 0,3 7,9 NE 11,3 1003,6 85 -
00:34 2,5 0,2 7,9 NE 17,7 1003,6 85 -
00:38 2,4 0,1 7,9 NE 14,5 1003,3 85 -
00:44 2,4 0,3 7,9 NE 14,5 1003,3 86 -
00:48 2,4 0,3 9,7 NE 12,9 1003,3 86 -
00:54 2,3 0,2 7,9 NE 11,3 1003,3 86 -
00:58 2,3 0,2 7,9 NE 14,5 1003,3 86 -
01:04 2,2 0,3 4,7 NE 16,1 1002,9 87 -
01:08 2,2 0,3 7,9 NNE 11,3 1002,9 87 -
01:14 2,2 0,3 4,7 NNE 11,3 1002,9 87 -
01:18 2,1 0,3 6,4 NE 14,5 1002,9 88 -
01:24 2,1 0,3 6,4 NE 8,0 1002,9 88 -
01:28 2,1 0,3 4,7 ENE 11,3 1002,9 88 -
01:34 2,0 0,2 6,4 NE 12,9 1002,9 88 -
01:38 2,0 0,2 4,7 NNW 12,9 1002,9 88 -
01:44 2,0 0,2 3,2 NE 9,7 1002,9 88 -
01:48 2,0 0,2 7,9 NNE 8,0 1002,9 88 -
01:54 1,9 0,1 7,9 NE 11,3 1002,9 88 -
01:58 1,9 0,1 13,0 NE 12,9 1002,9 88 -
02:04 1,9 0,1 7,9 NE 11,3 1002,6 88 -
02:08 1,9 0,1 14,3 NE 14,5 1002,6 88 -
02:14 1,9 0,1 6,4 NE 12,9 1002,6 88 -
02:18 1,9 0,1 9,7 NNE 16,1 1002,6 88 -
02:24 1,9 0,1 11,1 NE 12,9 1002,6 88 -
02:28 1,9 0,1 3,2 NE 12,9 1002,6 88 -
02:34 1,9 0,1 3,2 NE 12,9 1002,6 88 -
02:38 1,9 0,3 9,7 NE 11,3 1002,6 89 -
02:44 1,8 0,2 13,0 NE 12,9 1002,6 89 -
02:48 1,8 0,2 6,4 NNE 11,3 1002,6 89 -
02:54 1,8 0,2 6,4 NNE 12,9 1002,3 89 -
02:58 1,8 0,2 11,1 NE 11,3 1002,3 89 -
03:04 1,7 0,1 4,7 NNE 11,3 1002,3 89 -
03:08 1,7 0,1 7,9 NNE 9,7 1002,3 89 -
03:14 1,7 0,1 6,4 NNE 14,5 1002,3 89 -
03:18 1,7 0,1 4,7 NE 14,5 1002,3 89 -
03:22 1,7 0,1 6,4 NE 16,1 1002,3 89 -
03:28 1,6 0,0 13,0 NNE 16,1 1001,9 89 -
03:32 1,6 0,0 7,9 NNE 9,7 1001,9 89 -
03:38 1,6 0,1 4,7 North 14,5 1001,9 90 -
03:42 1,5 0,0 7,9 NE 14,5 1001,9 90 -
03:49 1,5 0,0 4,7 NE 11,3 1001,9 90 -
03:53 1,4 -0,1 6,4 NE 11,3 1001,9 90 -
03:59 1,4 -0,1 6,4 NNE 9,7 1001,9 90 -
04:03 1,4 -0,1 9,7 NE 12,9 1001,9 90 -
04:09 1,4 -0,1 4,7 NNE 9,7 1001,9 90 -
04:13 1,3 -0,2 4,7 NNE 8,0 1001,9 90 -
04:19 1,3 -0,2 3,2 NE 6,4 1001,9 90 -
04:23 1,3 0,0 3,2 NE 8,0 1001,9 91 -
04:29 1,3 0,0 6,4 NE 6,4 1001,9 91 -
04:33 1,3 0,0 4,7 NE 6,4 1001,9 91 -
04:39 1,3 -0,2 1,4 NE 8,0 1001,6 90 -
04:43 1,3 -0,2 3,2 NNE 4,8 1001,6 90 -
04:49 1,3 -0,2 3,2 North 8,0 1001,6 90 -
04:53 1,3 -0,2 3,2 NE 9,7 1001,6 90 -
04:59 1,3 -0,2 4,7 NNE 11,3 1001,6 90 -
05:03 1,3 -0,2 4,7 NNE 11,3 1001,6 90 -
05:09 1,3 -0,2 7,9 NE 11,3 1001,6 90 -
05:13 1,3 -0,2 11,1 NNE 11,3 1001,6 90 -
05:19 1,2 -0,3 4,7 NNE 9,7 1001,6 90 -
05:23 1,2 -0,3 4,7 ENE 8,0 1001,6 90 -
05:29 1,2 -0,3 1,4 NNE 4,8 1001,6 90 -
05:33 1,2 -0,3 3,2 NE 6,4 1001,6 90 -
05:39 1,2 -0,3 3,2 NE 4,8 1001,6 90 -
05:43 1,1 -0,4 4,7 NE 6,4 1001,6 90 -
05:49 1,1 -0,4 1,4 NE 3,2 1001,2 90 -
05:53 1,1 -0,4 3,2 NNE 8,0 1001,2 90 -
05:59 1,1 -0,2 3,2 NE 6,4 1001,2 91 -
06:03 1,1 -0,4 1,4 NE 8,0 1001,2 90 -
06:09 1,1 -0,4 4,7 NE 8,0 1001,2 90 -
06:13 1,1 -0,4 4,7 NNE 9,7 1001,2 90 -
06:19 1,1 -0,4   Calm 9,7 1001,2 90 -
06:23 1,1 -0,4 1,4 North 4,8 1001,2 90 -
06:29 1,0 -0,5 1,4 NE 8,0 1001,2 90 -
06:33 0,9 -0,6 9,7 NE 11,3 1000,9 90 -
06:39 0,9 -0,6 3,2 NNE 8,0 1000,9 90 -
06:43 0,9 -0,6 1,4 NNE 6,4 1001,2 90 -
06:49 0,9 -0,6 3,2 NE 6,4 1000,9 90 -
06:53 0,9 -0,6   Calm 8,0 1000,9 90 -
06:59 0,9 -0,6 1,4 North 3,2 1000,9 90 -
07:03 0,9 -0,6 4,7 NNE 4,8 1001,2 90 -
07:07 0,9 -0,6   Calm 1,6 1001,2 90 -
07:13 0,8 -0,7 1,4 NNW 3,2 1000,9 90 -
07:19 0,8 -0,5   Calm 1,6 1000,9 91 -
07:23 0,8 -0,5   Calm 6,4 1000,9 91 -
07:29 0,8 -0,5 3,2 NE 3,2 1000,9 91 -
07:33 0,8 -0,5   Calm 1,6 1001,2 91 -
07:39 0,8 -0,5 1,4 NNE 1,6 1001,2 91 -
07:43 0,8 -0,5   Calm 1,6 1001,2 91 -
07:49 0,8 -0,5   Calm 3,2 1001,2 91 -
07:53 0,8 -0,5   Calm   1001,2 91 -
07:59 0,8 -0,5 6,4 North 6,4 1001,2 91 -
08:03 0,8 -0,5 3,2 North 4,8 1001,2 91 -
08:09 0,8 -0,5   Calm 3,2 1001,2 91 -
08:13 0,8 -0,5   Calm 3,2 1001,2 91 -
08:19 0,8 -0,5   Calm 3,2 1001,2 91 -
08:23 0,8 -0,5 1,4 North 3,2 1001,2 91 -
08:29 0,8 -0,5   Calm 4,8 1001,2 91 -
08:33 0,9 -0,4 1,4 NNE 3,2 1001,2 91 -
08:39 0,9 -0,4 1,4 ENE 3,2 1001,2 91 -
08:43 0,9 -0,4   Calm 3,2 1001,2 91 -
08:49 0,9 -0,4 1,4 NE 4,8 1001,2 91 -
08:53 0,9 -0,4 1,4 NE 3,2 1001,2 91 -
08:59 0,9 -0,4   Calm 3,2 1001,2 91 -
09:01 1,0 -0,3   Calm 3,2 1001,2 91 -
09:09 1,0 -0,3 3,2 NE 4,8 1001,2 91 -
09:13 1,1 -0,2 3,2 NE 3,2 1001,2 91 -
09:19 1,1 -0,2   Calm 3,2 1001,2 91 -
09:23 1,1 -0,2   Calm 3,2 1001,2 91 -
09:29 1,2 -0,1 1,4 North 4,8 1001,2 91 -
09:33 1,2 -0,1   Calm 1,6 1001,2 91 -
09:39 1,3 -0,2   Calm 3,2 1001,2 90 -
09:44 1,3 -0,2   Calm 3,2 1001,2 90 -
09:48 1,3 -0,2 3,2 NE 4,8 1001,2 90 -
09:54 1,4 -0,1 1,4 NNE 3,2 1001,2 90 -
09:58 1,4 -0,1 1,4 NE 4,8 1001,2 90 -
10:04 1,5 0,0   Calm 1,6 1001,2 90 -
10:08 1,6 0,1   Calm 3,2 1001,2 90 -
10:14 1,7 0,1   Calm 1,6 1001,2 89 -
10:18 1,7 0,1 1,4 ENE 4,8 1001,2 89 -
10:24 1,7 -0,1   Calm 3,2 1001,2 88 -
10:28 1,8 0,2 1,4 East 1,6 1001,2 89 -
10:34 1,9 0,1   Calm 1,6 1001,2 88 -
10:38 1,9 0,1   Calm 3,2 1001,2 88 -
10:44 2,1 0,3   Calm 3,2 1001,2 88 -
10:48 2,1 0,2   Calm 3,2 1001,6 87 -
10:54 2,3 0,4   Calm 1,6 1001,6 87 -
10:58 2,4 0,5   Calm 1,6 1001,2 87 -
11:04 2,6 0,5   Calm 1,6 1001,6 86 -
11:08 2,7 0,6   Calm   1001,2 86 -
11:14 2,8 0,4   Calm   1001,6 84 -
11:18 2,7 0,3   Calm 1,6 1001,6 84 -
11:24 2,8 0,4   Calm   1001,2 84 -
11:28 2,8 0,2 1,4 SSE 1,6 1001,2 83 -
11:34 2,9 0,3   Calm 3,2 1001,2 83 -
11:38 2,9 0,5   Calm 3,2 1001,2 84 -
11:44 3,1 0,7 1,4 SE 3,2 1001,2 84 -
11:48 3,0 0,4 1,4 ESE 3,2 1001,2 83 -
11:54 2,9 0,3 1,4 SW 3,2 1001,2 83 -
11:58 3,0 0,4   Calm   1001,2 83 -
12:04 3,0 0,4   Calm 1,6 1001,2 83 -
12:08 3,0 0,4   Calm 1,6 1001,2 83 -
12:14 2,9 0,3   Calm 3,2 1001,2 83 -
12:18 2,9 0,3   Calm 3,2 1001,2 83 -
12:24 2,9 0,3   Calm 1,6 1001,2 83 -
12:28 3,0 0,4 3,2 SE 3,2 1001,2 83 -
12:34 3,1 0,3   Calm 1,6 1001,2 82 -
12:38 3,1 0,2   Calm 1,6 1001,2 81 -
12:44 3,1 0,2 1,4 SW 3,2 1001,2 81 -
12:48 3,1 0,0 1,4 SW 3,2 1001,2 80 -
12:54 3,2 0,3 1,4 South 3,2 1001,2 81 -
12:58 3,2 0,1   Calm   1001,2 80 -
13:04 3,3 0,2 1,4 SE 1,6 1001,2 80 -
13:08 3,3 0,4 3,2 South 4,8 1001,2 81 -
13:14 3,2 0,3   Calm 1,6 1001,2 81 -
13:18 3,3 0,4 1,4 WSW 3,2 1001,2 81 -
13:24 3,3 0,4   Calm 1,6 1001,2 81 -
13:28 3,3 0,5 1,4 SW 1,6 1001,2 82 -
13:34 3,3 0,4 3,2 SSW 3,2 1001,2 81 -
13:38 3,3 0,4   Calm 1,6 1001,2 81 -
13:44 3,3 0,5   Calm 3,2 1001,2 82 -
13:48 3,2 0,4 1,4 South 3,2 1001,2 82 -
13:54 3,2 0,3 3,2 South 3,2 1001,2 81 -
13:58 3,2 0,3 1,4 SSW 3,2 1001,2 81 -
14:04 3,1 0,2   Calm   1001,2 81 -
14:08 3,1 0,3   Calm   1001,2 82 -
14:14 3,2 0,1   Calm 1,6 1001,2 80 -
14:18 3,1 -0,2   Calm 1,6 1001,6 79 -
14:22 3,2 0,1   Calm 1,6 1001,2 80 -
14:29 3,3 0,4   Calm   1001,6 81 -
14:33 3,3 0,2   Calm 3,2 1001,6 80 -
14:39 3,3 0,4 1,4 South 3,2 1001,6 81 -
14:43 3,3 0,4 1,4 SE 1,6 1001,6 81 -
14:49 3,4 0,6   Calm 1,6 1001,6 82 -
14:53 3,5 0,7 1,4 South 3,2 1001,6 82 -
14:59 3,4 0,6 3,2 SSW 3,2 1001,6 82 -
15:03 3,4 0,6   Calm 3,2 1001,6 82 -
15:09 3,3 0,4 1,4 East 1,6 1001,6 81 -
15:13 3,3 0,4 3,2 South 3,2 1001,6 81 -
15:19 3,4 0,6   Calm 1,6 1001,6 82 -
15:23 3,4 0,6   Calm 1,6 1001,6 82 -
15:29 3,4 0,4 3,2 South 3,2 1001,6 81 -
15:33 3,4 0,4 1,4 SW 4,8 1001,9 81 -
15:39 3,4 0,6   Calm 1,6 1001,9 82 -
15:43 3,4 0,6 1,4 SSE 4,8 1001,9 82 -
15:49 3,4 0,4 1,4 SSW 4,8 1001,9 81 -
15:53 3,3 0,4 1,4 SE 3,2 1001,9 81 -
15:59 3,3 0,4   Calm 3,2 1001,9 81 -
16:03 3,3 0,2 1,4 SW 3,2 1001,9 80 -
16:09 3,3 0,5 3,2 SSW 3,2 1001,9 82 -
16:13 3,3 0,4 1,4 South 3,2 1001,9 81 -
16:19 3,2 0,3 1,4 SW 4,8 1001,9 81 -
16:23 3,2 0,3 1,4 SW 3,2 1001,9 81 -
16:29 3,2 0,6 1,4 SSW 1,6 1001,9 83 -
16:33 3,2 0,6   Calm 1,6 1001,9 83 -
16:39 3,2 0,6   Calm 3,2 1002,3 83 -
16:43 3,1 0,5   Calm 3,2 1002,3 83 -
16:49 3,1 0,5   Calm 3,2 1002,3 83 -
16:53 2,9 0,3   Calm   1002,3 83 -
16:59 2,9 0,5   Calm   1002,6 84 -
17:03 2,8 0,5   Calm   1002,6 85 -
17:09 2,7 0,4   Calm 1,6 1002,6 85 -
17:13 2,6 0,3   Calm 3,2 1002,6 85 -
17:19 2,4 0,1   Calm 1,6 1002,6 85 -
17:23 2,4 0,1   Calm   1002,9 85 -
17:29 2,2 0,1   Calm   1002,9 86 -
17:33 2,1 0,2   Calm   1002,9 87 -

Download your copy of this data-set  here

Our weather-data as stored at Weather Underground. Script developed by Jim McMurry. Adapted for the template by Leuven-Template.eu

You find our weather info also at:

Weather Underground

Equipment we use:

Weather-station
Davis Vue

Weather-program
Meteobridge

Weather-server
Raspberry PI 2 B+

Provider
1 and 1

Davis Vue

Meteobridge

Raspberry PI 2 B+

1 and 1